Regional Weather Roundup
Issued by NWS

Home | Current Version | Previous Version | Graphics & Text | Print | Product List | Glossary On
Versions: 1 2 3 4 5 6 7 8 9 10 11 12 13 14 15 16 17 18 19 20 21 22 23 24 25 26 27 28 29 30 31 32 33 34 35 36 37 38 39 40 41 42 43 44 45 46 47 48 49 50
620
ASUS43 KMKX 260000
RWRWI

WISCONSIN REGIONAL WEATHER ROUNDUP
NATIONAL WEATHER SERVICE MILWAUKEE/SULLIVAN WI
700 PM CDT THU AUG 25 2016

NOTE: "FAIR" INDICATES FEW OR NO CLOUDS BELOW 12,000 FEET WITH NO
SIGNIFICANT WEATHER AND/OR OBSTRUCTIONS TO VISIBILITY.

WIZ001-002-006>008-014>016-023>028-260100-
NORTHWEST WISCONSIN

CITY           SKY/WX    TMP DP  RH WIND       PRES   REMARKS
SUPERIOR ARPT  CLOUDY    67  56  67 W12       30.00S
ASHLAND        MOCLDY    67  54  63 W15G21    30.01R
6HR MIN TEMP:  67; 6HR MAX TEMP:  77; 6HR PCP: TRACE;

HAYWARD        CLOUDY    66  52  60 W5        30.04S
6HR MIN TEMP:  66; 6HR MAX TEMP:  72;

SIREN          CLOUDY    67  53  60 W8        30.05S
CUMBERLAND     MOCLDY    66  50  55 NW13G21   30.06R
RICE LAKE      CLEAR     67  53  59 W8G16     30.06S
CHETEK         NOT AVBL
LADYSMITH      MOCLDY    70  56  61 W14       30.05R
EAU CLAIRE     NOT AVBL
MENOMONIE      CLEAR     71  54  54 W10G18    30.05S
6HR MIN TEMP:  71; 6HR MAX TEMP:  78;

NEW RICHMOND   PTCLDY    68  53  58 W10G16    30.07S
OSCEOLA        CLOUDY    69  54  59 W12       30.09S
$$

WIZ003>005-009-010-017-018-260100-
NORTH CENTRAL WISCONSIN

CITY           SKY/WX    TMP DP  RH WIND       PRES   REMARKS
MANITOWISH WTR NOT AVBL
ARBOR VITAE    CLEAR     72  57  58 W8        30.01R
WOODRUFF       CLEAR     72  57  58 W8        30.01R
RHINELANDER    PTCLDY    69  57  65 W12       30.01R
6HR MIN TEMP:  66; 6HR MAX TEMP:  78;

EAGLE RIVER    PTCLDY    69  51  52 W12       30.00R
LAND O LAKES   PTCLDY    69  52  53 W8G16     30.00R
PHILLIPS       PTCLDY    66  55  66 W8        30.02R
6HR MIN TEMP:  66; 6HR MAX TEMP:  74;

TOMAHAWK       CLEAR     69  52  54 W9G17     30.02R
MEDFORD        CLEAR     69  53  58 W9G17     30.03R
MERRILL        CLEAR     72  54  53 W10G17    30.01S
$$

WIZ029-030-035-036-043>047-260100-
CENTRAL WISCONSIN

CITY           SKY/WX    TMP DP  RH WIND       PRES   REMARKS
WAUSAU         CLEAR     72  57  59 W8        29.99F
6HR MIN TEMP:  72; 6HR MAX TEMP:  78;

MOSINEE        CLEAR     72  55  56 W10       30.02S
MARSHFIELD     CLEAR     71  53  52 W10       30.03R
6HR MIN TEMP:  71; 6HR MAX TEMP:  78;

STEVENS POINT  CLEAR     73  58  60 W8        30.01S
WAUPACA        CLEAR     78  61  55 SW7       30.00F HX  80
WAUTOMA        CLEAR     75  61  61 W8        30.02F
6HR MIN TEMP:  75; 6HR MAX TEMP:  80;

WISC RAPIDS    CLEAR     74  60  61 W8        30.03S
6HR MIN TEMP:  74; 6HR MAX TEMP:  81;

CAMP DOUGLAS   NOT AVBL
$$

WIZ011>013-019>022-031-037>040-048>050-260100-
NORTHEAST WISCONSIN

CITY           SKY/WX    TMP DP  RH WIND       PRES   REMARKS
ANTIGO         CLEAR     70  57  62 W9G21     30.01S
SHAWANO        CLEAR     77  58  51 W7        29.98S
OCONTO         NOT AVBL
STURGEON BAY   CLEAR     75  62  64 W10       29.97S
6HR MIN TEMP:  75; 6HR MAX TEMP:  78;

GREEN BAY      CLEAR     75  64  68 SW6       29.98S
6HR MIN TEMP:  75; 6HR MAX TEMP:  79;

MANITOWOC      NOT AVBL
APPLETON       PTCLDY    75  55  50 W8        29.99S
CLINTONVILLE   CLEAR     75  59  57 SW5       29.99S
OSHKOSH        CLEAR     75  60  59 W3        30.00F
6HR MIN TEMP:  75; 6HR MAX TEMP:  79;

$$

WIZ032>034-041-042-053>061-260100-
SOUTHWEST WISCONSIN

CITY           SKY/WX    TMP DP  RH WIND       PRES   REMARKS
LA CROSSE      CLEAR     77  60  55 W9        30.03S
6HR MIN TEMP:  77; 6HR MAX TEMP:  81;

SPARTA         CLEAR     75  59  56 W9        30.04S
VIROQUA        CLEAR     72  63  72 SW6       30.06F
6HR MIN TEMP:  72; 6HR MAX TEMP:  76;

BOSCOBEL       CLOUDY    76  64  66 SW3       30.05F
6HR MIN TEMP:  76; 6HR MAX TEMP:  80;

PRAIRIE DU CHI CLEAR     76  58  54 W5        30.05F
PLATTEVILLE    CLOUDY    73  67  82 SW3       30.07F
$$

WIZ056-057-062-063-064-067-068-260100-
SOUTH CENTRAL WISCONSIN

CITY           SKY/WX    TMP DP  RH WIND       PRES   REMARKS
REEDSBURG      NOT AVBL
BARABOO/DELLS  CLOUDY    73  61  64 W7        30.04F
LONE ROCK      NOT AVBL
MINERAL POINT  CLOUDY    73  63  68 W3        30.07F
MADISON        MOCLDY    74  62  66 CALM      30.04F
6HR MIN TEMP:  74; 6HR MAX TEMP:  80;

MIDDLETON      PTCLDY    74  64  70 CALM      30.05F
WATERTOWN      PTCLDY    74  63  67 W5        30.04S
MONROE         CLOUDY    73  61  64 W6        30.06F
JANESVILLE     MOCLDY    75  64  69 CALM      30.04F
$$

WIZ051-052-058>065-066-070>072-260100-
SOUTHEAST WISCONSIN

CITY           SKY/WX    TMP DP  RH WIND       PRES   REMARKS
MILWAUKEE      CLOUDY    80  57  45 W7        30.02F HX  80
6HR MIN TEMP:  79; 6HR MAX TEMP:  84;

WAUKESHA       CLEAR     73  61  64 W7        30.05S
MILWAUKEE/TIMM CLEAR     75  54  46 W6        30.04S
RACINE         CLOUDY    76  62  62 W3        30.04S
6HR MIN TEMP:  76; 6HR MAX TEMP:  82;

BURLINGTON     PTCLDY    73  59  61 NW5       30.04S
KENOSHA        CLOUDY    73  63  70 W6        30.04S
6HR MIN TEMP:  73; 6HR MAX TEMP:  82;

FOND DU LAC    CLEAR     75  60  59 SW5       30.02S
6HR MIN TEMP:  75; 6HR MAX TEMP:  80;

SHEBOYGAN      CLEAR     73  60  63 W7        30.01S
6HR MIN TEMP:  73; 6HR MAX TEMP:  80;

WEST BEND      CLOUDY    73  59  60 W6        30.03S
JUNEAU         CLOUDY    73  62  67 SW7       30.04F
$$

LSZ147-162-260100-
LAKE SUPERIOR

STATION/POSITION TIME  TEMP    WIND        PRES    WAVE
                       AIR SEA DIR/SP/G            HT/PER
                 (UTC) (F)     (DEG/KT/KT) (MB)    (FT/S)
W MID LAKE BUOY  2250   68 68  250/ 21/ 25 1012.2R   5/ 6
DEVILS ISLAND    2300   67     240/ 21/ 27 1014.1R
PORT WING        2340   69     240/ 14/ 18 1015.6R
SAXON HARBOR     2300   71     270/ 10/ 17 1014.9
$$

LMZ867-665-643>646-260100-
LAKE MICHIGAN

STATION/POSITION TIME  TEMP    WIND        PRES    WAVE
                       AIR SEA DIR/SP/G            HT/PER
                 (UTC) (F)     (DEG/KT/KT) (MB)    (FT/S)
CHAMBERS ISLAND  2340   76     220/  7/ 12 1013.5R
S GREEN BAY BUOY 2230   76 73  240/ 10/ 12 1014.1F
N MID LAKE BUOY  2250   72 70  210/ 16/ 19 1012.9F   2/ 3
NORTHPORT PIER   2300   79     220/  4/  9 1013.5R
SISTER BAY       2137   78     230/ 15/ 18   N/A
ALGOMA LAKESHORE 2300          260/  9/ 13   N/A
KEWAUNEE LAKESHO 2300   78                 1014.6R
SHEBOYGAN LAKESH 2300   77     250/  9/ 12 1015.4R
PORT WASHINGTON  2340   78     250/  3/  7 1016.9S
ATWATER BUOY     2300   67 49  180/  4/  4   N/A
MILWAUKEE LAKESH 2310   68     130/  3/  5   N/A
S MID LAKE BUOY  2250   74 75  180/  2/  2 1016.2R   1/ 4
KENOSHA   LAKESH 2300   74     250/  2/  8 1016.3S
$$

TC  - TEMPERATURE IN CELSIUS
VSB - VISIBILITY IN STATUTE MILES
WCI - WIND CHILL INDEX
HX  - HEAT INDEX





USA.gov is the U.S. government's official web portal to all federal, state and local government web resources and services.